Location: Unspecified
(0.0000°N, 0.0000°E)
Time: 00:35:57
(UTC+00:00)

A-11 Canister half - Pass Details

Date: 10 February 2023
Orbit: 1526 x 1682 km, 47.3° (Epoch: 29 March)

Event Time Altitude Azimuth Distance (km) Brightness Sun altitude
Rises 23:59:26 0° 209° (SSW) 4,843 - -75.0°
Reaches altitude 10° 00:02:45 10° 203° (SSW) 3,833 - -75.2°
Maximum altitude 00:12:03 50° 130° (SE) 1,933 - -75.5°
Drops below altitude 10° 00:21:01 10° 58° (ENE) 3,715 - -75.4°
Sets 00:24:09 0° 52° (NE) 4,683 - -75.3°
